This is the latest recevied weather packets stored in our database for station/object SR9NCI. If no packets are shown the sender has not sent any weather packets the latest 1 day(s).
| Time | Temp. | Humidity | Pressure | Rain* | Wind** | Luminosity | Snow |
|---|---|---|---|---|---|---|---|
| 1777946201 | 17.78° C | - | 0 hPa | - | 2.24 m/s, 126° | - | - |
| 1777945953 | 17.78° C | - | 0 hPa | - | 2.24 m/s, 116° | - | - |
| 1777945711 | 17.78° C | - | 0 hPa | - | 2.68 m/s, 115° | - | - |
| 1777945469 | 17.78° C | - | 0 hPa | - | 2.68 m/s, 115° | - | - |
| 1777945228 | 17.78° C | - | 0 hPa | - | 3.13 m/s, 124° | - | - |
| 1777944987 | 17.78° C | - | 0 hPa | - | 3.58 m/s, 125° | - | - |
| 1777944746 | 17.78° C | - | 0 hPa | - | 3.13 m/s, 141° | - | - |
| 1777944503 | 17.78° C | - | 0 hPa | - | 2.68 m/s, 156° | - | - |
| 1777944262 | 17.78° C | - | 0 hPa | - | 2.68 m/s, 138° | - | - |
| 1777944021 | 17.78° C | - | 0 hPa | - | 2.24 m/s, 127° | - | - |
| 1777943779 | 17.78° C | - | 0 hPa | - | 2.24 m/s, 144° | - | - |
| 1777943531 | 17.78° C | - | 0 hPa | - | 2.24 m/s, 135° | - | - |
| 1777943288 | 17.78° C | - | 0 hPa | - | 1.79 m/s, 153° | - | - |
| 1777943047 | 17.78° C | - | 0 hPa | - | 1.34 m/s, 135° | - | - |
| 1777942806 | 17.78° C | - | 0 hPa | - | 2.24 m/s, 135° | - | - |
| 1777942564 | 17.78° C | - | 0 hPa | - | 1.79 m/s, 135° | - | - |
| 1777942322 | 17.78° C | - | 0 hPa | - | 1.79 m/s, 135° | - | - |
| 1777942080 | 17.78° C | - | 0 hPa | - | 1.79 m/s, 143° | - | - |
| 1777941839 | 17.78° C | - | 0 hPa | - | 1.79 m/s, 135° | - | - |
| 1777941598 | 17.78° C | - | 0 hPa | - | 1.79 m/s, 139° | - | - |
| 1777941355 | 17.78° C | - | 0 hPa | - | 1.79 m/s, 157° | - | - |
| 1777941107 | 18.33° C | - | 0 hPa | - | 1.79 m/s, 202° | - | - |
| 1777940865 | 18.33° C | - | 0 hPa | - | 1.79 m/s, 157° | - | - |
| 1777940624 | 18.33° C | - | 0 hPa | - | 2.24 m/s, 157° | - | - |
| 1777940382 | 18.33° C | - | 0 hPa | - | 1.34 m/s, 157° | - | - |
* Rain since midnight (hover to see other rain measurements)
** Current wind speed in m/s (hover to see current wind gust speed)